Location: Cricklewood
(51.5500°N, 0.2167°W)
Time: 23:02:50
(UTC+00:00)

Ariane Rocket - Visible Passes

Search period start: 15 February 2026 00:00
Search period end: 25 February 2026 00:00
Orbit: 755 x 764 km, 98.5° (Epoch: 15 February)

Date Brightness Start Highest point End Pass type
(mag) Time Alt. Az. Time Alt. Az. Time Alt. Az.
15 Feb 5.2 20:34:35 16° N 20:34:35 16° N 20:35:44 10° N visible
15 Feb 6.0 22:14:39 11° NNW 22:14:39 11° NNW 22:14:50 10° NNW visible
16 Feb 5.1 19:55:32 14° NNE 19:55:32 14° NNE 19:56:34 10° NNE visible
16 Feb 5.5 21:35:36 15° NNW 21:35:36 15° NNW 21:36:29 10° NNW visible
17 Feb 5.1 20:56:32 18° N 20:56:32 18° N 20:57:51 10° N visible
18 Feb 5.0 20:17:28 17° NNE 20:17:28 17° NNE 20:18:55 10° N visible
18 Feb 5.7 21:57:33 15° NNW 21:57:33 15° NNW 21:58:21 10° NNW visible
19 Feb 5.1 19:38:24 13° NNE 19:38:24 13° NNE 19:39:28 10° NNE visible
19 Feb 5.2 21:18:29 19° N 21:18:29 19° N 21:19:52 10° NNW visible
20 Feb 4.9 20:39:25 20° N 20:39:25 20° N 20:41:06 10° N visible
20 Feb 5.8 22:19:29 13° NNW 22:19:29 13° NNW 22:20:06 10° NNW visible
21 Feb 4.9 20:00:21 16° NNE 20:00:21 16° NNE 20:02:00 10° N visible
21 Feb 5.3 21:40:25 19° NNW 21:40:25 19° NNW 21:41:48 10° NNW visible
22 Feb 5.1 19:21:18 11° NE 19:21:18 11° NE 19:21:57 10° NNE visible
22 Feb 4.9 21:01:21 22° N 21:01:21 22° N 21:03:12 10° N visible
22 Feb 6.0 22:41:25 11° NW 22:41:25 11° NW 22:41:41 10° NW visible
23 Feb 4.8 20:22:18 20° NNE 20:22:18 20° NNE 20:24:18 10° N visible
23 Feb 5.5 22:02:22 18° NNW 22:02:22 18° NNW 22:03:38 10° NNW visible
24 Feb 4.9 19:43:13 15° NE 19:43:13 15° NE 19:44:56 10° NNE visible
24 Feb 4.9 21:23:18 23° N 21:23:18 23° N 21:25:11 10° NNW visible
